Location: Unspecified
(0.0000°N, 0.0000°E)
Time: 05:49:29
(UTC+00:00)

Altair - Visible Passes

Search period start: 21 April 2018 00:00
Search period end: 01 May 2018 00:00
Orbit: 1502 x 1682 km, 47.2° (Epoch: 20 April)

Date Brightness Start Highest point End Pass type
(mag) Time Alt. Az. Time Alt. Az. Time Alt. Az.
27 Apr 9.5 21:20:48 10° N 21:20:50 10° N 21:20:50 10° N visible
28 Apr 9.4 20:56:19 10° N 20:57:04 11° NNE 20:57:04 11° NNE visible
29 Apr 9.3 20:32:00 10° NNE 20:33:21 12° NNE 20:33:21 12° NNE visible
30 Apr 9.2 20:08:03 10° NNE 20:09:40 11° NE 20:09:40 11° NE visible
30 Apr 9.5 22:06:54 10° NNW 22:07:42 13° NNW 22:07:42 13° NNW visible
